Regional Weather Roundup
Issued by NWS

Home | Current Version | Previous Version | Text Only | Print | Product List | Glossary On
Versions: 1 2 3 4 5 6 7 8 9 10 11 12 13 14 15 16 17 18 19 20 21 22 23 24 25 26 27 28 29 30 31 32 33 34 35 36 37 38 39 40 41 42 43 44 45 46 47 48 49 50
000
ASUS43 KLSX 250159
RWRMO

WEATHER SUMMARY FOR MISSOURI
NATIONAL WEATHER SERVICE SPRINGFIELD MO
900 PM CDT FRI OCT 24 2014

NOTE: "FAIR" INDICATES FEW OR NO CLOUDS BELOW 12,000 FEET WITH NO
       SIGNIFICANT WEATHER AND/OR OBSTRUCTIONS TO VISIBILITY.
       CURRENT SKY AND/OR WEATHER CONDITIONS ARE NOT AVAILABLE FOR
       CHILLICOTHE AND FARMINGTON.

MOZ001>031-035>038-043-044-053-054-250300-
...NORTHERN AND WESTERN MISSOURI...

CITY           SKY/WX    TMP DP  RH WIND       PRES   REMARKS
KANSAS CTY INT MOCLDY    66  61  84 SW7       29.97R
KANSAS C DTWN  CLEAR     71  61  70 SW6       29.96R
LEE`S SUMMIT   PTCLDY    68  61  78 SW10      29.98R
ST JOSEPH      CLEAR     63  61  93 S5        29.95S
KIRKSVILLE     PTCLDY    63  60  90 CALM      29.96R

$$
MOZ066>068-077>081-088>096-101>105-250300-
...SOUTHWEST MISSOURI...

CITY           SKY/WX    TMP DP  RH WIND       PRES   REMARKS
SPRINGFIELD    PTCLDY    63  59  87 S9        30.05R
JOPLIN         CLEAR     65  60  84 S10       30.04S

$$
MOZ032>034-039>042-045>050-055>058-069>072-250300-
...CENTRAL MISSOURI...

CITY           SKY/WX    TMP DP  RH WIND       PRES   REMARKS
COLUMBIA       CLEAR     65  59  81 S8        29.98F
JEFFERSON CITY CLEAR     66  59  78 E5        29.98S
ROLLA          PTCLDY    64  58  80 S10       30.01S
SEDALIA        CLEAR     69  61  75 SW13      29.99R
OSAGE BEACH    PTCLDY    66  57  72 S6        30.01F

$$
MOZ051-052-059>065-250300-
...EAST CENTRAL MISSOURI...

CITY           SKY/WX    TMP DP  RH WIND       PRES   REMARKS
ST LOUIS INTL  MOCLDY    67  49  52 S6        30.00S
SPIRIT OF STL  MOCLDY    59  51  75 CALM      29.98F
ST CHARLES     PTCLDY    59  52  77 CALM      29.98F

$$
MOZ072>076-082>087-097>100-106>115-250300-
...SOUTH CENTRAL AND SOUTHEAST MISSOURI...

CITY           SKY/WX    TMP DP  RH WIND       PRES   REMARKS
CAPE GIRARDEAU PTCLDY    58  52  80 SW6       30.05S
FARMINGTON     MOCLDY    61  52  72 S6        30.06S
POPLAR BLUFF   PTCLDY    56  52  86 CALM      30.05S
WEST PLAINS    MOCLDY    63  56  78 SW7       30.09R

$$



USA.gov is the U.S. government's official web portal to all federal, state and local government web resources and services.